Regional Weather Roundup
Issued by NWS State College, PA

Home | Current Version | Previous Version | Graphics & Text | Print | Product List | Glossary On
Versions: 1 2 3 4 5 6 7 8 9 10 11 12 13 14 15 16 17 18 19 20 21 22 23 24 25 26 27 28 29 30 31 32 33 34 35 36 37 38 39 40 41 42 43 44 45 46 47 48 49 50
988
ASUS41 KCTP 190410
RWRCTP

REGIONAL WEATHER ROUNDUP
NATIONAL WEATHER SERVICE STATE COLLEGE PA
1100 PM EST WED JAN 18 2017

Note: "fair" indicates few or no clouds below 12,000 feet with no
significant weather and/or obstructions to visibility.

* = STATION THAT DOES NOT REPORT PRECIPITATION /E.G. RAIN...SNOW...ETC/
    THUNDER OR FOG.

PAZ002>004-007>009-013>016-020>023-029>032-190500-
WESTERN PENNSYLVANIA

CITY           SKY/WX    TMP DP  RH WIND       PRES   REMARKS
ERIE           CLOUDY    37  35  92 W15G21    30.08R FOG
MEADVILLE      CLOUDY    36  34  92 SW8       30.06R
FRANKLIN*        N/A     36  34  93 W9        30.07S
NEW CASTLE     CLOUDY    37  37 100 CALM      30.10S FOG
BEAVER COUNTY  NOT AVBL
BUTLER*        CLOUDY    37  34  87 SW7       30.12R
PITTSBURGH INT CLOUDY    38  37  97 W5        30.10R
PITTSBURGH     CLOUDY    38  34  85 VRB5      30.10R
INDIANA*       CLOUDY    37  37 100 W8        30.11R
LATROBE        CLOUDY    37  37 100 SW8       30.11R
WASHINGTON CO* CLOUDY    37  36  93 SW5       30.11R
$$

PAZ004>006-010>012-017>019-024>028-033>037-041-042-045-046-049>053-190500-
CENTRAL PENNSYLVANIA

CITY           SKY/WX    TMP DP  RH WIND       PRES   REMARKS
BRADFORD       CLOUDY    34  33  96 VRB6      29.99F
DUBOIS         CLOUDY    35  33  92 W14       30.03R FOG
CLEARFIELD     CLOUDY    36  36 100 SW5       30.05R FOG
JOHNSTOWN      CLOUDY    34  34 100 W9        30.03R
ALTOONA        CLOUDY    38  34  85 W5        30.05F
STATE COLLEGE  CLOUDY    38  34  87 W8        30.05S
WILLIAMSPORT   CLOUDY    41  35  79 W6        30.04R
SELINSGROVE    CLOUDY    38  38 100 CALM      30.05S
FT INDIANTOWN  CLOUDY    43  38  82 NW3       30.04S
CAPITAL CITY   CLOUDY    45  34  65 NW6       30.05S
HARRISBURG     CLOUDY    43  36  76 NW6       30.05R
YORK           CLOUDY    43  37  79 W5        30.05S
$$

PAZ038>040-043-044-047-048-054-055-060>062-067>071-190500-
EASTERN PENNSYLVANIA

CITY           SKY/WX    TMP DP  RH WIND       PRES   REMARKS
SCRANTON       CLOUDY    38  38 100 CALM      30.01S FOG
MOUNT POCONO   CLOUDY    35  33  92 NW6       29.96F
ALLENTOWN      CLOUDY    42  38  85 CALM      30.03S
QUAKERTOWN*    CLOUDY    39  39 100 CALM      30.04R
READING        CLOUDY    44  36  73 W6        30.03S
LANCASTER      CLOUDY    44  38  79 NW8       30.04S
COATESVILLE    CLOUDY    45  39  81 W5        30.04S
POTTSTOWN      CLOUDY    42  38  85 CALM      30.04F
BLUE BELL      CLOUDY    41  37  87 CALM      30.03R
DOYLESTOWN     CLOUDY    42  39  89 CALM      30.03S
WILLOW GROVE   NOT AVBL
NORTH PHILA    CLOUDY    44  39  82 CALM      30.05F
PHILADELPHIA   CLOUDY    45  38  76 NW5       30.04F
$$




USA.gov is the U.S. government's official web portal to all federal, state and local government web resources and services.